| time (UTC) | temp C | wind direction | speed KPH | gust KPH | rain 1hr cm | rain 24hr cm | rain mn cm | humidity % | barometer mb |
| 20260505092955 | 23 | 0 | 0.0 | 0.0 | 9.32 | 10.97 | 2.13 | 78 | 983.0 |
| 20260505092455 | 23 | 0 | 0.0 | 0.0 | 0.86 | 2.54 | 2.13 | 19 | 983.2 |
| 20260505091955 | 23 | 0 | 0.0 | 0.0 | 0.23 | 1.96 | 1.47 | 79 | 983.0 |
| 20260505091455 | 23 | 0 | 0.0 | 0.0 | 0.28 | 1.96 | 1.47 | 79 | 983.0 |
| 20260505090954 | 23 | 0 | 0.0 | 0.0 | 0.30 | 1.96 | 1.47 | 80 | 982.7 |
| 20260505090455 | 23 | 0 | 0.0 | 0.0 | 0.30 | 4.93 | 1.45 | 79 | 982.8 |
| 20260505085955 | 23 | 0 | 0.0 | 0.0 | 0.28 | 5.13 | 1.42 | 79 | 982.7 |
| 20260505085455 | 23 | 0 | 0.0 | 0.0 | 0.30 | 5.13 | 1.42 | 79 | 982.7 |
| 20260505084954 | 23 | 0 | 0.0 | 0.0 | 0.43 | 5.13 | 1.42 | 78 | 982.8 |
| 20260505084455 | 23 | 0 | 0.0 | 0.0 | 0.51 | 5.11 | 1.37 | 79 | 982.6 |
| 20260505083956 | 23 | 0 | 0.0 | 0.0 | 0.66 | 5.11 | 1.37 | 79 | 982.5 |
| 20260505083454 | 23 | 0 | 0.0 | 0.0 | 0.76 | 5.03 | 1.32 | 79 | 982.7 |
| 20260505082455 | 23 | 0 | 0.0 | 0.0 | 0.81 | 4.98 | 1.27 | 79 | 982.9 |
| 20260505081954 | 23 | 0 | 0.0 | 0.0 | 0.81 | 4.95 | 1.22 | 78 | 983.0 |
| 20260505081455 | 23 | 0 | 0.0 | 0.0 | 0.81 | 4.93 | 1.19 | 78 | 982.6 |
| 20260505080954 | 23 | 0 | 0.0 | 0.0 | 0.81 | 4.90 | 1.17 | 77 | 982.7 |
| 20260505080455 | 23 | 0 | 0.0 | 0.0 | 0.79 | 4.85 | 1.14 | 78 | 982.7 |
| 20260505075954 | 23 | 0 | 0.0 | 0.0 | 0.81 | 4.85 | 1.14 | 78 | 982.5 |
| 20260505075455 | 23 | 0 | 0.0 | 0.0 | 0.79 | 4.83 | 1.12 | 78 | 982.5 |
| 20260505074955 | 23 | 0 | 0.0 | 0.0 | 0.66 | 4.70 | 0.99 | 78 | 982.8 |
| 20260505074455 | 23 | 0 | 0.0 | 0.0 | 0.53 | 4.60 | 0.86 | 77 | 982.9 |
| 20260505073955 | 23 | 0 | 0.0 | 0.0 | 0.38 | 4.45 | 0.71 | 77 | 983.1 |
| 20260505072955 | 24 | 0 | 0.0 | 0.0 | 0.15 | 4.19 | 0.48 | 76 | 983.2 |
| 20260505072455 | 24 | 263 | 0.0 | 1.6 | 0.10 | 4.14 | 0.43 | 76 | 983.0 |
| 20260505071955 | 24 | 263 | 0.0 | 1.6 | 0.10 | 4.14 | 0.43 | 76 | 982.9 |
| 20260505071455 | 24 | 0 | 0.0 | 0.0 | 0.05 | 4.11 | 0.38 | 76 | 983.0 |
| 20260505070955 | 24 | 0 | 0.0 | 0.0 | 0.03 | 4.09 | 0.36 | 76 | 982.9 |
| 20260505070455 | 24 | 0 | 0.0 | 0.0 | 0.03 | 4.09 | 0.36 | 76 | 982.9 |
| 20260505065955 | 24 | 0 | 0.0 | 0.0 | 0.00 | 4.04 | 0.33 | 75 | 982.8 |
| 20260505065455 | 24 | 0 | 0.0 | 0.0 | 0.00 | 4.04 | 0.33 | 75 | 982.9 |
| 20260505064955 | 25 | 0 | 0.0 | 0.0 | 0.00 | 4.04 | 0.33 | 75 | 983.0 |
| 20260505063955 | 25 | 0 | 0.0 | 0.0 | 0.00 | 4.04 | 0.33 | 74 | 983.2 |
| 20260505063455 | 25 | 0 | 0.0 | 0.0 | 0.03 | 4.04 | 0.33 | 73 | 983.1 |
| 20260505062954 | 25 | 0 | 0.0 | 0.0 | 0.03 | 4.04 | 0.33 | 73 | 983.1 |
| 20260505062455 | 25 | 0 | 0.0 | 0.0 | 0.03 | 4.04 | 0.33 | 72 | 983.1 |
| 20260505061955 | 25 | 0 | 0.0 | 0.0 | 0.10 | 4.04 | 0.33 | 72 | 983.2 |
| 20260505061455 | 25 | 0 | 0.0 | 0.0 | 0.10 | 4.04 | 0.33 | 71 | 983.2 |
| 20260505060955 | 25 | 0 | 0.0 | 0.0 | 0.13 | 4.04 | 0.33 | 72 | 983.3 |
| 20260505060455 | 25 | 0 | 0.0 | 0.0 | 0.13 | 4.04 | 0.33 | 73 | 983.2 |
| 20260505055956 | 25 | 0 | 0.0 | 0.0 | 0.13 | 4.04 | 0.33 | 74 | 983.4 |
| 20260505054455 | 25 | 0 | 0.0 | 0.0 | 0.13 | 4.04 | 0.33 | 75 | 983.4 |
| 20260505053955 | 25 | 0 | 0.0 | 0.0 | 0.13 | 4.04 | 0.33 | 76 | 983.8 |
| 20260505053455 | 25 | 0 | 0.0 | 0.0 | 0.10 | 4.01 | 0.30 | 76 | 983.6 |
| 20260505052455 | 25 | 0 | 0.0 | 0.0 | 0.05 | 3.99 | 0.30 | 75 | 983.8 |
| 20260505051955 | 25 | 0 | 0.0 | 0.0 | 0.03 | 3.96 | 0.23 | 75 | 984.0 |
| 20260505051456 | 25 | 0 | 0.0 | 0.0 | 0.00 | 3.94 | 0.20 | 75 | 983.8 |
| 20260505050954 | 25 | 0 | 0.0 | 0.0 | 0.00 | 3.94 | 0.20 | 75 | 984.0 |
| 20260505041455 | 25 | 0 | 0.0 | 0.0 | 0.00 | 3.94 | 0.20 | 74 | 984.4 |
| 20260505040455 | 25 | 0 | 0.0 | 0.0 | 0.00 | 3.94 | 0.20 | 74 | 984.4 |
| 20260505035956 | 25 | 0 | 0.0 | 0.0 | 0.00 | 3.94 | 0.20 | 74 | 984.7 |
| 20260505035455 | 25 | 0 | 0.0 | 0.0 | 0.00 | 3.94 | 0.20 | 75 | 984.5 |
| 20260505034956 | 25 | 0 | 0.0 | 0.0 | 0.00 | 3.94 | 0.20 | 75 | 984.5 |
| 20260505034455 | 25 | 0 | 0.0 | 0.0 | 0.00 | 3.94 | 0.20 | 75 | 984.6 |
| 20260505033955 | 25 | 0 | 0.0 | 0.0 | 0.00 | 3.94 | 0.20 | 74 | 984.6 |
| 20260505033455 | 25 | 0 | 0.0 | 0.0 | 0.00 | 3.94 | 0.20 | 74 | 984.5 |
| 20260505032955 | 25 | 0 | 0.0 | 0.0 | 0.00 | 3.94 | 0.20 | 74 | 984.5 |
| 20260505032455 | 25 | 0 | 0.0 | 0.0 | 0.00 | 3.94 | 0.20 | 75 | 984.6 |
| 20260505031956 | 25 | 0 | 0.0 | 0.0 | 0.00 | 3.94 | 0.20 | 74 | 984.5 |
| 20260505031455 | 25 | 0 | 0.0 | 0.0 | 0.03 | 3.94 | 0.20 | 75 | 984.6 |
| 20260505030955 | 25 | 0 | 0.0 | 0.0 | 0.03 | 3.94 | 0.20 | 75 | 984.7 |
| 20260505025955 | 25 | 0 | 0.0 | 0.0 | 0.10 | 3.94 | 0.20 | 75 | 984.7 |
| 20260505025455 | 24 | 0 | 0.0 | 0.0 | 0.10 | 3.94 | 0.20 | 76 | 985.1 |
| 20260505024956 | 24 | 0 | 0.0 | 0.0 | 0.13 | 3.94 | 0.20 | 76 | 985.2 |
| 20260505024455 | 24 | 0 | 0.0 | 0.0 | 0.15 | 3.94 | 0.20 | 76 | 984.8 |
| 20260505023955 | 24 | 0 | 0.0 | 0.0 | 0.15 | 3.94 | 0.20 | 76 | 985.1 |
| 20260505022955 | 24 | 0 | 0.0 | 0.0 | 0.15 | 3.94 | 0.20 | 75 | 985.0 |
| 20260505022456 | 24 | 0 | 0.0 | 0.0 | 0.15 | 3.94 | 0.20 | 76 | 984.7 |
| 20260505021956 | 24 | 0 | 0.0 | 0.0 | 0.13 | 3.91 | 0.18 | 78 | 984.9 |
| 20260505021456 | 24 | 0 | 0.0 | 0.0 | 0.13 | 3.91 | 0.18 | 78 | 984.7 |
| 20260505020955 | 24 | 0 | 0.0 | 0.0 | 0.13 | 3.91 | 0.18 | 78 | 984.7 |
| 20260505015956 | 23 | 0 | 0.0 | 0.0 | 0.05 | 3.84 | 0.13 | 78 | 984.7 |
| 20260505014456 | 24 | 0 | 0.0 | 0.0 | 0.00 | 3.78 | 0.05 | 76 | 984.8 |
| 20260505013955 | 24 | 0 | 0.0 | 0.0 | 0.00 | 3.78 | 0.05 | 77 | 985.0 |
| 20260505013456 | 23 | 0 | 0.0 | 0.0 | 0.00 | 3.78 | 0.05 | 77 | 984.8 |
| 20260505012956 | 23 | 0 | 0.0 | 0.0 | 0.00 | 3.78 | 0.05 | 76 | 984.9 |
| 20260505012455 | 24 | 0 | 0.0 | 0.0 | 0.00 | 3.78 | 0.05 | 76 | 984.8 |
| 20260505011956 | 24 | 0 | 0.0 | 0.0 | 0.00 | 3.78 | 0.05 | 76 | 984.8 |
| 20260505011455 | 24 | 0 | 0.0 | 0.0 | 0.00 | 3.78 | 0.05 | 76 | 985.0 |
| 20260505010956 | 24 | 0 | 0.0 | 0.0 | 0.00 | 3.78 | 0.05 | 75 | 984.8 |
| 20260505010455 | 24 | 0 | 0.0 | 0.0 | 0.00 | 3.78 | 0.05 | 75 | 984.8 |
| 20260505005455 | 24 | 0 | 0.0 | 0.0 | 0.00 | 3.78 | 0.05 | 75 | 984.9 |
| 20260505004956 | 24 | 0 | 0.0 | 0.0 | 0.00 | 3.78 | 0.05 | 75 | 984.6 |
| 20260505003955 | 24 | 0 | 0.0 | 0.0 | 0.03 | 3.78 | 0.05 | 75 | 984.5 |
| 20260505003456 | 24 | 0 | 0.0 | 0.0 | 0.03 | 3.78 | 0.05 | 75 | 984.7 |
| 20260505002956 | 24 | 0 | 0.0 | 0.0 | 0.03 | 3.78 | 0.05 | 75 | 984.6 |
| 20260505002455 | 24 | 0 | 0.0 | 0.0 | 0.03 | 3.78 | 0.05 | 75 | 984.4 |
| 20260505001956 | 24 | 0 | 0.0 | 0.0 | 0.03 | 3.78 | 0.05 | 75 | 984.5 |
| 20260505001456 | 23 | 0 | 0.0 | 0.0 | 0.03 | 3.78 | 0.05 | 76 | 984.3 |
| 20260505000956 | 23 | 0 | 0.0 | 0.0 | 0.03 | 3.78 | 0.05 | 76 | 984.6 |
| 20260505000456 | 23 | 0 | 0.0 | 0.0 | 0.03 | 3.78 | 0.05 | 77 | 984.6 |
| 20260504235456 | 23 | 0 | 0.0 | 0.0 | 0.03 | 3.78 | 0.05 | 76 | 984.3 |
| 20260504234956 | 23 | 0 | 0.0 | 0.0 | 0.03 | 3.78 | 0.05 | 77 | 984.3 |
| 20260504234455 | 23 | 0 | 0.0 | 0.0 | 0.00 | 3.76 | 0.03 | 77 | 984.3 |
| 20260504233955 | 23 | 0 | 0.0 | 0.0 | 0.00 | 3.76 | 0.03 | 77 | 984.4 |
| 20260504233456 | 23 | 0 | 0.0 | 0.0 | 0.00 | 3.76 | 0.03 | 77 | 984.4 |
| 20260504232955 | 23 | 0 | 0.0 | 0.0 | 0.00 | 3.76 | 0.03 | 77 | 984.3 |
| 20260504232456 | 23 | 0 | 0.0 | 0.0 | 0.00 | 3.76 | 0.03 | 76 | 984.1 |
| 20260504231956 | 23 | 0 | 0.0 | 0.0 | 0.00 | 3.76 | 0.03 | 76 | 984.3 |
| 20260504231456 | 23 | 0 | 0.0 | 0.0 | 0.00 | 3.76 | 0.03 | 76 | 984.2 |
| 20260504230956 | 23 | 0 | 0.0 | 0.0 | 0.00 | 3.76 | 0.03 | 76 | 984.1 |
| 20260504230455 | 23 | 0 | 0.0 | 0.0 | 0.00 | 3.76 | 0.03 | 76 | 984.1 |
| 20260504225956 | 23 | 0 | 0.0 | 0.0 | 0.00 | 3.76 | 0.03 | 75 | 984.0 |
| 20260504225456 | 23 | 0 | 0.0 | 0.0 | 0.00 | 3.76 | 0.03 | 75 | 983.9 |
| 20260504224956 | 23 | 0 | 0.0 | 0.0 | 0.00 | 3.76 | 0.03 | 75 | 983.9 |
| 20260504224456 | 23 | 0 | 0.0 | 0.0 | 0.00 | 3.76 | 0.03 | 75 | 983.9 |
| 20260504223955 | 23 | 0 | 0.0 | 0.0 | 0.00 | 3.76 | 0.03 | 76 | 983.9 |
| 20260504223456 | 23 | 0 | 0.0 | 0.0 | 0.00 | 3.76 | 0.03 | 76 | 984.2 |
| 20260504222956 | 23 | 0 | 0.0 | 0.0 | 0.00 | 3.76 | 0.03 | 77 | 983.9 |
| 20260504221956 | 23 | 0 | 0.0 | 0.0 | 0.00 | 3.76 | 0.03 | 77 | 983.9 |
| 20260504221456 | 23 | 0 | 0.0 | 0.0 | 0.00 | 3.76 | 0.03 | 77 | 983.8 |
| 20260504220956 | 23 | 0 | 0.0 | 0.0 | 0.00 | 3.76 | 0.03 | 77 | 983.9 |
| 20260504215956 | 23 | 0 | 0.0 | 0.0 | 0.00 | 3.76 | 0.03 | 77 | 983.7 |
| 20260504215456 | 23 | 0 | 0.0 | 0.0 | 0.00 | 3.76 | 0.03 | 77 | 983.5 |
| 20260504214956 | 23 | 0 | 0.0 | 0.0 | 0.00 | 3.76 | 0.03 | 77 | 983.6 |
| 20260504213956 | 23 | 0 | 0.0 | 0.0 | 0.00 | 3.76 | 0.03 | 77 | 983.4 |
| 20260504212956 | 23 | 0 | 0.0 | 0.0 | 0.00 | 3.76 | 0.03 | 77 | 983.4 |
| 20260504212456 | 23 | 0 | 0.0 | 0.0 | 0.00 | 3.76 | 0.03 | 78 | 983.6 |
| 20260504210956 | 23 | 0 | 0.0 | 0.0 | 0.00 | 3.76 | 0.03 | 78 | 983.5 |
| 20260504210456 | 23 | 0 | 0.0 | 0.0 | 0.00 | 3.76 | 0.03 | 78 | 983.4 |
| 20260504205956 | 23 | 0 | 0.0 | 0.0 | 0.00 | 3.76 | 0.03 | 77 | 983.3 |
| 20260504205456 | 23 | 0 | 0.0 | 0.0 | 0.00 | 3.76 | 0.03 | 77 | 983.4 |
| 20260504204956 | 23 | 0 | 0.0 | 0.0 | 0.00 | 3.76 | 0.03 | 78 | 983.2 |
| 20260504204456 | 23 | 0 | 0.0 | 0.0 | 0.00 | 3.76 | 0.03 | 78 | 983.2 |
| 20260504203955 | 23 | 0 | 0.0 | 0.0 | 0.00 | 3.76 | 0.03 | 78 | 983.4 |
| 20260504203456 | 23 | 0 | 0.0 | 0.0 | 0.00 | 3.76 | 0.03 | 78 | 983.3 |
| 20260504202456 | 23 | 0 | 0.0 | 0.0 | 0.00 | 3.76 | 0.03 | 78 | 983.0 |
| 20260504201456 | 23 | 0 | 0.0 | 0.0 | 0.00 | 3.76 | 0.03 | 78 | 982.9 |
| 20260504200955 | 23 | 0 | 0.0 | 0.0 | 0.00 | 3.76 | 0.03 | 78 | 983.0 |
| 20260504200456 | 23 | 0 | 0.0 | 0.0 | 0.00 | 3.76 | 0.03 | 78 | 983.0 |
| 20260504195956 | 23 | 0 | 0.0 | 0.0 | 0.00 | 3.76 | 0.03 | 78 | 983.1 |
| 20260504195456 | 23 | 0 | 0.0 | 0.0 | 0.00 | 3.76 | 0.03 | 78 | 983.0 |
| 20260504194956 | 23 | 0 | 0.0 | 0.0 | 0.00 | 3.76 | 0.03 | 78 | 983.0 |
| 20260504194456 | 23 | 0 | 0.0 | 0.0 | 0.00 | 3.76 | 0.03 | 78 | 983.0 |
| 20260504193956 | 23 | 0 | 0.0 | 0.0 | 0.00 | 3.76 | 0.03 | 78 | 983.2 |
| 20260504193456 | 23 | 0 | 0.0 | 0.0 | 0.00 | 3.76 | 0.03 | 77 | 983.2 |
| 20260504192956 | 23 | 0 | 0.0 | 0.0 | 0.00 | 3.76 | 0.03 | 77 | 983.1 |
| 20260504192456 | 24 | 0 | 0.0 | 0.0 | 0.00 | 3.76 | 0.03 | 76 | 983.1 |
| 20260504191956 | 24 | 0 | 0.0 | 0.0 | 0.00 | 3.76 | 0.03 | 76 | 983.1 |
| 20260504190456 | 23 | 0 | 0.0 | 0.0 | 0.00 | 3.76 | 0.03 | 77 | 982.9 |
| 20260504185956 | 23 | 0 | 0.0 | 0.0 | 0.00 | 3.76 | 0.03 | 77 | 983.0 |
| 20260504185456 | 23 | 0 | 0.0 | 0.0 | 0.00 | 3.76 | 0.03 | 77 | 982.8 |
| 20260504184456 | 23 | 0 | 0.0 | 0.0 | 0.00 | 3.76 | 0.03 | 77 | 982.8 |
| 20260504183956 | 23 | 0 | 0.0 | 0.0 | 0.00 | 3.76 | 0.03 | 77 | 982.9 |
| 20260504183456 | 23 | 0 | 0.0 | 0.0 | 0.00 | 3.76 | 0.03 | 77 | 982.5 |
| 20260504182957 | 23 | 0 | 0.0 | 0.0 | 0.00 | 3.76 | 0.03 | 77 | 982.7 |
| 20260504182456 | 23 | 0 | 0.0 | 0.0 | 0.00 | 3.76 | 0.03 | 77 | 982.9 |
| 20260504181956 | 23 | 0 | 0.0 | 0.0 | 0.00 | 3.76 | 0.03 | 76 | 982.9 |
| 20260504181456 | 24 | 0 | 0.0 | 0.0 | 0.00 | 3.76 | 0.03 | 76 | 983.0 |
| 20260504180456 | 24 | 0 | 0.0 | 0.0 | 0.00 | 3.76 | 0.03 | 76 | 983.4 |
| 20260504175956 | 23 | 0 | 0.0 | 0.0 | 0.00 | 3.76 | 0.03 | 77 | 983.1 |
| 20260504175457 | 23 | 0 | 0.0 | 0.0 | 0.03 | 3.76 | 0.03 | 77 | 983.0 |
| 20260504174956 | 23 | 0 | 0.0 | 0.0 | 0.03 | 3.76 | 0.03 | 76 | 983.4 |
| 20260504174456 | 23 | 0 | 0.0 | 0.0 | 0.03 | 3.76 | 0.03 | 76 | 983.3 |
| 20260504173956 | 23 | 0 | 0.0 | 0.0 | 0.03 | 3.76 | 0.03 | 76 | 983.2 |
| 20260504173456 | 23 | 0 | 0.0 | 0.0 | 0.03 | 3.76 | 0.03 | 76 | 983.4 |
| 20260504172956 | 23 | 0 | 0.0 | 0.0 | 0.03 | 3.76 | 0.03 | 76 | 983.4 |
| 20260504172456 | 23 | 0 | 0.0 | 0.0 | 0.03 | 3.76 | 0.03 | 76 | 983.5 |
| 20260504171956 | 23 | 0 | 0.0 | 0.0 | 0.03 | 3.76 | 0.03 | 76 | 983.5 |
| 20260504171456 | 23 | 0 | 0.0 | 0.0 | 0.03 | 3.76 | 0.03 | 76 | 983.6 |
| 20260504170956 | 23 | 0 | 0.0 | 0.0 | 0.03 | 3.76 | 0.03 | 76 | 983.7 |
| 20260504170456 | 23 | 0 | 0.0 | 0.0 | 0.03 | 3.76 | 0.03 | 76 | 983.8 |
| 20260504150957 | 25 | 0 | 0.0 | 0.0 | 0.00 | 3.71 | 0.71 | 73 | 984.4 |
| 20260504140456 | 25 | 0 | 0.0 | 0.0 | 0.00 | 3.71 | 0.71 | 73 | 984.3 |
| 20260504110456 | 25 | 0 | 0.0 | 0.0 | 0.15 | 3.61 | 0.61 | 70 | 984.5 |